www.pogodaiklimat.ru

Погода и климат >> Архив погоды >> Россия >> Иркутская область >> Инга


АРХИВ ПОГОДЫ в Инге

Время (UTC), дата Ветер
(напр.,м/с)
 
Видим.   Явления Облачность Т
(С)
Тd
(С)
f
(%)
Тe
(С)
Тes
(С)
Комфортность P
(гПа)
Po
(гПа)
Тmin
(С)
Tmax
(С)
R
(мм)
R24
(мм)
S
(см)
21 11.07 штиль 0 50 км 10/10 600 м
[Cb cap]
+16.4 +13.9 85 +16 +16 1015.2 952.9
00 12.07 З 2 50 км в посл. час ливневой дождь 10/10 600 м
[Cb cap]
+15.8 +13.9 88 +16 +16 1015.6 953.1 +15.7 0.3
03 12.07 З 2 50 км 10/10 600 м
[Cb cap]
+17.3 +13.8 80 +18 +18 1015.8 953.6
06 12.07 СЗ 2 50 км 10/10 600 м
[Cb cap]
+17.4 +12.8 74 +18 +18 1015.8 953.6
09 12.07 З 2 50 км 10/10 600 м
[Cb cap]
+18.0 +12.4 70 +19 +19 1015.0 953.0
12 12.07 З 2 50 км 10/10 600 м
[Cb cap]
+17.4 +12.4 72 +18 +18 1015.7 953.5 +18.1
15 12.07 З 2 н/о 10/10 600 м
[Cb cap]
+15.7 +13.0 84 +16 +16 1016.8 954.3
18 12.07 ЮЗ 2 н/о 10/10 600 м
[Cb cap]
+15.3 +13.0 86 +15 +15 1016.4 953.8
21 12.07 штиль 0 50 км 10/10 600 м
[Cb cap]
+15.0 +13.0 88 +15 +15 1016.1 953.4
00 13.07 ЮЗ 2 50 км 10/10 600 м
[Cb cap]
+15.4 +13.3 87 +15 +15 1016.0 953.4 +14.8
03 13.07 ЮЗ 2 50 км 10/8 600 м
[Cb cap Ac As]
+16.0 +13.1 83 +16 +17 1015.9 953.4
06 13.07 ЮЗ 2 50 км 10/8 600 м
[Cb cap Ac As]
+18.3 +13.9 76 +19 +20 1014.5 952.6
09 13.07 штиль 0 20 км дым 10/8 600 м
[Cb cap Ac As]
+19.4 +13.8 70 +21 +21 комфорт 1012.7 951.1
12 13.07 штиль 0 20 км дым 10/1 600 м
[Cb cap Ac As Cs]
+19.5 +14.3 72 +21 +21 комфорт 1011.8 970.4 +20.3
15 13.07 штиль 0 н/о туман 6/0
[Ci sp]
+13.9 +13.5 97 +13 +13 1012.4 949.8
18 13.07 штиль 0 н/о туман 4/0
[Ci sp]
+12.3 +12.3 100 +12 +12 1012.2 949.2
21 13.07 штиль 0 500 м туман 8/0
[Ci sp]
+12.5 +12.5 100 +12 +12 1010.3 947.5
00 14.07 штиль 0 20 км в посл. час туман 10/0
[Ac As]
+13.8 +13.6 99 +13 +15 1008.7 946.2 +12.1
03 14.07 В 2 10 км дым 10/1 600 м
[Cb cap Ac As]
+17.7 +14.6 82 +18 +22 1006.1 944.7
06 14.07 В 2 10 км дым {ливн. осадки} 10/10 600 м
[Cb cap]
+18.9 +16.1 84 +21 +21 комфорт 1004.0 942.9
09 14.07 штиль 0 10 км дым 10/10 600 м
[Cb cap]
+20.2 +16.2 78 +23 +23 комфорт 1001.5 940.9
12 14.07 штиль 0 20 км в посл. час ливневой дождь 10/10 600 м
[Cb cap]
+19.3 +17.3 88 +21 +21 комфорт 1001.0 940.3 +21.0 0.3
15 14.07 З 2 н/о {ливн. осадки} 10/10 600 м
[Cb cap]
+18.0 +17.2 95 +19 +19 1001.6 940.6
18 14.07 З 2 н/о слаб. ливневой дождь 10/10 600 м
[Cb cap]
+14.8 +13.9 94 +14 +14 1003.2 941.3
21 14.07 штиль 0 10 км слаб. ливневой дождь 10/10 600 м
[Cb cap]
+14.1 +13.2 94 +14 +14 1003.4 941.1
00 15.07 З 2 20 км в посл. час ливневой дождь 10/10 600 м
[Cb cap]
+14.4 +13.3 93 +14 +14 1003.7 941.6 +14.0 8
03 15.07 штиль 0 20 км в посл. час ливневой дождь 10/10 600 м
[Cb cap]
+15.6 +13.8 89 +15 +15 1003.6 941.8
06 15.07 штиль 0 10 км слаб. ливневой дождь 10/10 600 м
[Cb cap]
+16.2 +14.1 87 +16 +16 1004.0 942.4
09 15.07 штиль 0 10 км слаб. ливневой дождь 10/10 600 м
[Cb cap]
+15.4 +13.3 87 +15 +15 1004.9 943.0
12 15.07 штиль 0 20 км в посл. час ливневой дождь 10/10 600 м
[Cb cap]
+15.0 +13.4 90 +15 +15 1005.8 943.8 +16.5 7
15 15.07 штиль 0 н/о в посл. час ливневой дождь 10/10 600 м
[Cb cap]
+14.4 +13.3 93 +14 +14 1006.5 944.3
18 15.07 штиль 0 н/о туман {ливн. осадки} 10/10 600 м
[Cb cap]
+13.8 +13.1 96 +13 +13 1006.4 944.1
21 15.07 штиль 0 500 м туман 10/10 600 м
[Cb cap]
+13.7 +13.5 99 +13 +13 1006.4 944.1
00 16.07 штиль 0 20 км {туман} 9/5 600 м
[Cb cap Ac trans]
+14.8 +13.6 93 +14 +16 1007.2 945.0 +13.6 0.6
03 16.07 СВ 2 20 км 9/8 600 м
[Cb cap Ac trans]
+19.0 +13.6 71 +21 +22 комфорт 1006.8 945.5
06 16.07 СВ 2 50 км 9/4 600 м
[Cb calv Ac trans Ci sp]
+21.9 +14.0 61 +25 +30 комфорт 1005.7 945.1
09 16.07 В 2 50 км 6/3 600 м
[Cb cap Ac trans Ci sp]
+23.4 +14.3 57 +27 +31 душно 1005.2 945.0
12 16.07 В 2 50 км 4/1 600 м
[Cb cap Ci fib]
+21.1 +13.9 63 +24 +24 комфорт 1006.0 945.2 +23.9
15 16.07 штиль 0 н/о 3/0
[Ac trans]
+14.4 +13.1 92 +14 +14 1008.2 945.9
18 16.07 штиль 0 н/о туман ясно +11.9 +11.7 99 +11 +11 1008.1 945.3
21 16.07 штиль 0 200 м туман ясно +13.1 +13.1 100 +12 +12 1008.1 945.5
00 17.07 штиль 0 500 м туман ясно +14.2 +14.2 100 +14 +19 1007.4 945.1 +11.8
03 17.07 СВ 2 50 км {туман} 1/0
[Ci sp]
+22.7 +16.8 69 +27 +40 душно 1003.4 943.2
06 17.07 В 2 50 км {туман} 3/1 1000 м
[Cu med, cong Ci sp]
+26.2 +17.3 58 +30 +44 душно 1001.8 942.4
09 17.07 СВ 2 50 км 6/1 600 м
[Cb cap Ci]
+27.7 +17.4 53 +32 +38 очень
душно
1000.4 941.4
12 17.07 Ю 2 50 км 10/5 600 м
[Cb cap Ac cast Ci fib]
+24.6 +18.8 70 +29 +30 душно 1001.7 942.1 +27.9
15 17.07 ЮЗ 2 н/о гроза без осадков 10/10 600 м
[Cb cap]
+21.4 +18.4 83 +26 +26 душно 1003.7 943.3
18 17.07 З 2 н/о {гроза} 10/1 600 м
[Cb cap Ac trans Ci fib]
+17.7 +14.2 80 +18 +18 1007.8 946.2
21 17.07 штиль 0 50 км 4/0
[Ci sp]
+13.6 +12.5 93 +13 +13 1008.6 946.1
00 18.07 ЮЗ 2 50 км 3/0
[Ac trans]
+17.2 +15.1 87 +18 +20 1008.4 946.8 +12.3
03 18.07 ЮЗ 2 50 км 3/1 1000 м
[Sc diur, vesp Ci sp]
+23.4 +15.2 60 +28 +38 душно 1007.0 946.6
06 18.07 В 2 50 км 3/3 600 м
[Cb calv Ci sp]
+26.5 +14.9 49 +29 +40 жарко 1004.1 944.5
09 18.07 С 2 50 км 6/3 600 м
[Cb cap Ac trans Ci sp]
+27.2 +15.6 49 +30 +34 душно 1003.4 944.0
12 18.07 штиль 0 50 км 9/6 600 м
[Cb cap Ac trans Ci sp]
+24.4 +17.5 65 +28 +29 душно 1004.3 944.4 +29.0
15 18.07 штиль 0 н/о 9/8 600 м
[Cb cap Ci sp]
+19.0 +17.9 93 +20 +20 1005.8 944.7
18 18.07 штиль 0 н/о 3/0
[Ci sp]
+16.4 +15.5 94 +16 +16 1005.9 944.2

 

Местоположение метеостанции Инга (Иркутская область, Россия): широта 52.97 долгота 101.90 высота над уровнем моря 543 м.

В архиве по умолчанию представлена погода в Инге за последнюю неделю. Архивные данные за месяц целиком и за предыдущие месяцы, начиная с января 2011 года, Вы можете получить, выбрав интересующий диапазон дат из раскрывающегося списка и нажав кнопку "Ввод!".


*Определитесь, кто Вы:
робот инопланетянин человек

Внимание! Время в таблицах - всемирное. Для получения местного времени необходимо прибавить поправку, которая равна 8 ч.

Смотрите также архив погоды в соседних городах и на ближайших метеорологических станциях:

Погода в Сараме (Иркутская область, Россия) (63 км)
Погода в Заларях (Иркутская область, Россия) (76 км)
Погода в Черемхово (Иркутская область, Россия) (77 км)
Погода в Зиме (Иркутская область, Россия) (107 км)
Погода в Дабадах (Иркутская область, Россия) (111 км)
Погода в Балаганске (Иркутская область, Россия) (136 км)
Погода в Ангарск (Иркутская область, Россия) (139 км)
Погода в Тунке (Бурятия, Россия) (144 км)
Погода в Кырене (Бурятия, Россия) (144 км)
Погода в Орлике (Бурятия, Россия) (150 км)

Пояснения к столбцам:

Ветер - указаны скорость ветра в м/с - средняя за 10 мин, порывы в срок и между сроками (в фигурных скобках) и направление, откуда дует ветер: С - северный, СВ - северо-восточный, В - восточный, ЮВ - юго-восточный, Ю - южный, ЮЗ - юго-западный, З - западный, СЗ - северо-западный.
Видимость - горизонтальная дальность видимости в метрах или километрах. При видимости от 1 до 10 км при отсутствии осадков обычно наблюдается дымка, при ухудшении видимости до 1 км и менее - туман. В сухую погоду видимость может ухудшаться дымом, пылью или мглою.
Явления - указаны атмосферные явления, наблюдавшиеся в срок или в последний час перед сроком; фигурными скобками обозначены явления, наблюдавшиеся между сроками (за 1-3 часа до срока); квадратными скобками обозначены град или гололедные отложения с указанием их диаметра в мм.
Облачность - указаны через наклонную черту общая и нижняя облачность в баллах и высота нижней границы облаков в метрах; квадратными скобками обозначены формы облаков: Ci - перистые, Cs - перисто-слоистые, Cc - перисто-кучевые, Ac - высококучевые, As - высокослоистые, Sc - слоисто-кучевые, Ns - слоисто-дождевые, Cu - кучевые, Cb - кучево-дождевые. Подробнее классификацию облаков см. в Атласе облаков (PDF).
T - Температура воздуха - температура, измеренная на высоте 2 м над землей.
Td - Температура точки росы - температура, при понижении до которой содержащийся в воздухе водяной пар достигнет насыщения.
f - Относительная влажность воздуха - влажноcть воздуха, измеренная на высоте 2 м над землей.
Te - Эффективная температура - температура, которую ощущает одетый по сезону человек в тени. Характеристика душности погоды. При расчете учитывается влияние влажности воздуха и скорости ветра на теплоощущения человека.
Tes - Эффективная температура на солнце - температура, которую ощущает человек, с поправкой на солнечный нагрев. Характеристика знойности погоды. Зависит от высоты солнца над горизонтом, облачности и скорости ветра. Ночью, в пасмурную погоду, а также при ветре 12 м/с и более поправка равна нулю.
P - Атмосферное давление - приведенное к уровню моря атмосферное давление.
Po - Атмосферное давление - измеренное на уровне метеостанции атмосферное давление.
Tmin - Минимальная температура - минимум температуры воздуха на высоте 2 м над землей.
Tmax - Максимальная температура - максимум температуры воздуха на высоте 2 м над землей.
R - Количество осадков - Количество выпавших осадков за период времени, мм. При наведении курсора мыши на число - период времени, за который выпало указанное количество осадков.
R24 - Количество осадков - Количество выпавших осадков за 24 часа, мм.
S - Снежный покров - Высота снежного покрова, см. При наведении курсора мыши на число - состояние снежного покрова и степень покрытия местности в баллах.